FW3788 Weather Reports


Display with metric or nautical units.
time (UTC)temp
F
wind
direction
speed
MPH
gust
MPH
rain 1hr
in
rain 24hr
in
rain mn
in
humidity
%
barometer
mb
20260503232015 60 191 1.0 7.0 0.00 0.00 0.00 50 1009.3
20260503231516 60 191 0.0 6.0 0.00 0.00 0.00 51 1009.3
20260503231016 60 191 0.0 4.0 0.00 0.00 0.00 52 1009.3
20260503230516 60 191 0.0 8.0 0.00 0.00 0.00 51 1009.3
20260503230016 60 193 0.0 10.0 0.00 0.00 0.00 52 1009.3
20260503225515 60 165 0.0 5.0 0.00 0.00 0.00 51 1009.3
20260503225016 60 165 0.0 14.0 0.00 0.00 0.00 50 1009.4
20260503224516 60 164 4.0 16.0 0.00 0.00 0.00 52 1009.5
20260503224016 61 187 12.0 16.0 0.00 0.00 0.00 50 1009.5
20260503223515 61 166 5.0 16.0 0.00 0.00 0.00 51 1009.5
20260503223017 61 173 0.0 13.0 0.00 0.00 0.00 50 1009.6
20260503222516 61 193 2.0 14.0 0.00 0.00 0.00 51 1009.7
20260503222015 61 189 1.0 13.0 0.00 0.00 0.00 52 1009.6
20260503221526 60 186 5.0 18.0 0.00 0.00 0.00 52 1009.7
20260503221017 59 166 12.0 18.0 0.00 0.00 0.00 53 1009.8
20260503220516 59 156 9.0 15.0 0.00 0.00 0.00 53 1009.8
20260503220016 60 182 8.0 15.0 0.00 0.00 0.00 52 1010.0
20260503215516 59 201 8.0 15.0 0.00 0.00 0.00 55 1010.0
20260503215015 59 190 8.0 15.0 0.00 0.00 0.00 53 1010.0
20260503214517 59 172 6.0 15.0 0.00 0.00 0.00 55 1010.0
20260503214016 59 169 10.0 16.0 0.00 0.00 0.00 55 1010.0
20260503213516 59 162 9.0 19.0 0.00 0.00 0.00 54 1009.9
20260503213019 60 187 12.0 19.0 0.00 0.00 0.00 53 1010.1
20260503212517 60 204 1.0 12.0 0.00 0.00 0.00 54 1009.9
20260503212016 59 181 1.0 12.0 0.00 0.00 0.00 54 1009.9
20260503211516 59 170 5.0 17.0 0.00 0.00 0.00 55 1010.0
20260503211016 59 150 11.0 17.0 0.00 0.00 0.00 54 1009.9
20260503210515 59 195 5.0 16.0 0.00 0.00 0.00 56 1010.0
20260503210016 59 180 7.0 14.0 0.00 0.00 0.00 55 1010.0
20260503205516 58 158 8.0 13.0 0.00 0.00 0.00 55 1010.2
20260503205016 58 176 0.0 10.0 0.00 0.00 0.00 56 1010.2
20260503204518 57 225 0.0 10.0 0.00 0.00 0.00 56 1010.3
20260503204017 57 192 2.0 8.0 0.00 0.00 0.00 58 1010.4
20260503203515 56 203 0.0 11.0 0.00 0.00 0.00 59 1010.3
20260503203017 56 189 0.0 11.0 0.00 0.00 0.00 58 1010.4
20260503202516 57 187 0.0 10.0 0.00 0.00 0.00 57 1010.3
20260503202016 56 181 2.0 16.0 0.00 0.00 0.00 58 1010.4
20260503201516 57 216 4.0 19.0 0.00 0.00 0.00 59 1010.4
20260503201016 57 176 10.0 19.0 0.00 0.00 0.00 58 1010.5
20260503200519 56 149 11.0 20.0 0.00 0.00 0.00 58 1010.5
20260503200016 57 170 13.0 19.0 0.00 0.00 0.00 58 1010.4
20260503195515 56 146 9.0 18.0 0.00 0.00 0.00 59 1010.4
20260503195020 56 164 10.0 18.0 0.00 0.00 0.00 60 1010.5
20260503194516 54 151 11.0 18.0 0.00 0.00 0.00 62 1010.6
20260503194016 55 174 5.0 15.0 0.00 0.00 0.00 63 1010.6
20260503193521 55 200 0.0 15.0 0.00 0.00 0.00 64 1010.6
20260503193016 56 191 0.0 12.0 0.00 0.00 0.00 62 1010.6
20260503192515 55 147 8.0 12.0 0.00 0.00 0.00 62 1010.5
20260503192016 55 203 5.0 12.0 0.00 0.00 0.00 61 1010.6
20260503191518 54 177 4.0 17.0 0.00 0.00 0.00 63 1010.7
20260503191017 54 160 7.0 17.0 0.00 0.00 0.00 63 1010.8
20260503190517 54 170 10.0 15.0 0.00 0.00 0.00 63 1010.8
20260503190018 54 157 9.0 16.0 0.00 0.00 0.00 63 1010.8
20260503185516 54 188 7.0 15.0 0.00 0.00 0.00 63 1010.8
20260503185016 54 180 5.0 17.0 0.00 0.00 0.00 63 1010.9
20260503184517 54 190 10.0 17.0 0.00 0.00 0.00 62 1010.9
20260503184017 54 176 11.0 17.0 0.00 0.00 0.00 64 1010.9
20260503183517 54 186 12.0 17.0 0.00 0.00 0.00 61 1010.9
20260503183018 54 183 9.0 18.0 0.00 0.00 0.00 62 1010.9
20260503182516 53 171 9.0 18.0 0.00 0.00 0.00 64 1010.9
20260503182016 53 164 11.0 16.0 0.00 0.00 0.00 64 1010.9
20260503181516 53 173 10.0 16.0 0.00 0.00 0.00 64 1010.9
20260503181016 53 152 8.0 16.0 0.00 0.00 0.00 66 1010.7
20260503180517 53 171 6.0 16.0 0.00 0.00 0.00 66 1010.8
20260503180017 52 181 8.0 16.0 0.00 0.00 0.00 69 1010.9
20260503175516 51 169 4.0 16.0 0.00 0.00 0.00 71 1011.0
20260503175016 51 179 7.0 16.0 0.00 0.00 0.00 72 1010.9
20260503174518 50 169 8.0 16.0 0.00 0.00 0.00 74 1011.0
20260503174016 50 151 7.0 16.0 0.00 0.00 0.00 77 1010.9
20260503173516 49 151 7.0 17.0 0.00 0.00 0.00 77 1010.9
20260503173016 50 177 10.0 17.0 0.00 0.00 0.00 77 1010.9
20260503172517 50 170 8.0 17.0 0.00 0.00 0.00 76 1010.8
20260503172016 50 179 11.0 17.0 0.00 0.00 0.00 75 1010.8
20260503171516 50 179 9.0 15.0 0.00 0.00 0.00 77 1010.6
20260503171017 49 171 8.0 14.0 0.00 0.00 0.00 79 1010.5
20260503170516 49 168 8.0 12.0 0.00 0.00 0.00 78 1010.5
20260503150516 48 187 1.0 11.0 0.00 0.00 0.00 77 1009.5
20260503131018 47 183 8.0 11.0 0.00 0.00 0.00 84 1008.2
20260503130515 47 187 5.0 12.0 0.00 0.00 0.00 85 1008.2
20260503110515 47 155 6.0 14.0 0.00 0.00 0.00 89 1008.0
20260503081519 50 167 0.0 0.0 0.00 0.00 0.00 79 1007.7
20260503081019 50 167 0.0 0.0 0.00 0.00 0.00 79 1007.8
20260503080516 50 167 0.0 0.0 0.00 0.00 0.00 79 1007.9
20260503072516 50 167 0.0 0.0 0.00 0.00 0.00 76 1008.0
20260503072116 50 167 0.0 0.0 0.00 0.00 0.00 76 1008.0
20260503071518 50 167 0.0 0.0 0.00 0.00 0.00 76 1008.1
20260503071016 50 167 0.0 0.0 0.00 0.00 0.00 76 1008.1
20260503070516 51 167 0.0 0.0 0.00 0.00 0.00 75 1008.0
20260503060139 52 167 0.0 0.0 0.00 0.00 0.00 73 1008.1
20260503055015 53 167 0.0 0.0 0.00 0.00 0.00 70 1008.2
20260503054516 53 167 0.0 0.0 0.00 0.00 0.00 70 1008.2
20260503054016 53 167 0.0 0.0 0.00 0.00 0.00 69 1008.2
20260503053516 54 167 0.0 0.0 0.00 0.00 0.00 68 1008.2
20260503053019 55 167 0.0 0.0 0.00 0.00 0.00 66 1008.2
20260503052517 55 167 0.0 0.0 0.00 0.00 0.00 66 1008.3
20260503052021 55 167 0.0 0.0 0.00 0.00 0.00 64 1008.4
20260503051517 55 167 0.0 0.0 0.00 0.00 0.00 65 1008.4
20260503051116 55 167 0.0 0.0 0.00 0.00 0.00 66 1008.4
20260503050516 55 241 0.0 0.0 0.00 0.00 0.00 67 1008.4
20260503050023 56 305 0.0 0.0 0.00 0.00 0.00 64 1008.4
20260503045516 56 305 0.0 0.0 0.00 0.00 0.00 66 1008.4
20260503045118 56 305 0.0 0.0 0.00 0.00 0.00 68 1008.4
20260503044519 55 305 0.0 0.0 0.00 0.00 0.00 69 1008.2
20260503044117 55 305 0.0 0.0 0.00 0.00 0.00 68 1008.1
20260503043516 56 305 0.0 0.0 0.00 0.00 0.00 68 1008.1
20260503043016 56 305 0.0 0.0 0.00 0.00 0.00 69 1007.9
20260503042516 56 305 0.0 1.0 0.00 0.00 0.00 68 1007.8
20260503042017 56 305 0.0 2.0 0.00 0.00 0.00 67 1007.9
20260503041516 57 305 0.0 5.0 0.00 0.00 0.00 67 1007.8
20260503041016 57 303 0.0 7.0 0.00 0.00 0.00 67 1007.7
20260503040516 57 318 2.0 6.0 0.00 0.00 0.00 67 1007.5
20260503040016 57 316 0.0 5.0 0.00 0.00 0.00 66 1007.4
20260503035516 58 320 1.0 4.0 0.00 0.00 0.00 64 1007.3
20260503035016 59 332 0.0 5.0 0.00 0.00 0.00 62 1007.2
20260503034517 60 332 1.0 5.0 0.00 0.00 0.00 59 1007.1
20260503034015 62 314 0.0 7.0 0.00 0.00 0.00 54 1007.0
20260503033517 63 152 3.0 8.0 0.00 0.00 0.00 48 1007.0
20260503033018 64 149 5.0 10.0 0.00 0.00 0.00 48 1006.8
20260503032521 64 165 6.0 11.0 0.00 0.00 0.00 48 1006.8
20260503032016 64 158 7.0 12.0 0.00 0.00 0.00 48 1006.8
20260503031517 64 166 8.0 12.0 0.00 0.00 0.00 47 1006.8
20260503031018 65 160 6.0 11.0 0.00 0.00 0.00 47 1006.8
20260503030516 65 176 7.0 12.0 0.00 0.00 0.00 47 1006.8
20260503030022 65 175 6.0 10.0 0.00 0.00 0.00 46 1006.7
20260503025516 65 156 7.0 10.0 0.00 0.00 0.00 47 1006.7
20260503025016 65 164 6.0 9.0 0.00 0.00 0.00 48 1006.8
20260503024516 65 162 6.0 8.0 0.00 0.00 0.00 47 1006.7
20260503024019 66 168 5.0 8.0 0.00 0.00 0.00 46 1006.8
20260503023516 66 174 4.0 8.0 0.00 0.00 0.00 45 1006.7
20260503023016 67 181 5.0 9.0 0.00 0.00 0.00 44 1006.8
20260503022516 67 179 5.0 9.0 0.00 0.00 0.00 42 1006.8
20260503022018 67 164 6.0 10.0 0.00 0.00 0.00 41 1006.8
20260503021522 68 162 4.0 10.0 0.00 0.00 0.00 40 1006.8
20260503021016 68 164 1.0 14.0 0.00 0.00 0.00 38 1006.8
20260503020516 69 186 7.0 14.0 0.00 0.00 0.00 36 1006.8
20260503020017 69 192 0.0 7.0 0.00 0.00 0.00 34 1006.7
20260503015516 69 174 3.0 7.0 0.00 0.00 0.00 33 1006.8
20260503015016 69 173 2.0 10.0 0.00 0.00 0.00 31 1006.8
20260503014516 70 167 2.0 12.0 0.00 0.00 0.00 31 1006.8
20260503014016 70 180 1.0 9.0 0.00 0.00 0.00 31 1006.8
20260503013516 70 197 0.0 10.0 0.00 0.00 0.00 32 1006.8
20260503013017 71 183 5.0 10.0 0.00 0.00 0.00 33 1006.9
20260503012516 71 181 3.0 13.0 0.00 0.00 0.00 33 1006.9
20260503012017 71 201 5.0 13.0 0.00 0.00 0.00 32 1006.8
20260503011517 72 154 4.0 14.0 0.00 0.00 0.00 31 1006.9
20260503011016 72 180 7.0 14.0 0.00 0.00 0.00 29 1006.9
20260503010516 72 152 5.0 17.0 0.00 0.00 0.00 28 1007.0
20260503010021 72 156 8.0 17.0 0.00 0.00 0.00 28 1007.0
20260503005517 72 153 5.0 20.0 0.00 0.00 0.00 27 1007.0
20260503005016 72 147 11.0 15.0 0.00 0.00 0.00 27 1007.0
20260503004516 72 162 4.0 9.0 0.00 0.00 0.00 31 1007.0
20260503004116 72 184 0.0 12.0 0.00 0.00 0.00 32 1007.0
20260503003516 72 157 4.0 15.0 0.00 0.00 0.00 31 1007.0
20260503003017 72 174 6.0 16.0 0.00 0.00 0.00 32 1007.1
20260503002516 72 199 10.0 16.0 0.00 0.00 0.00 30 1007.1
20260503002018 73 192 5.0 11.0 0.00 0.00 0.00 31 1007.2
20260503001516 73 192 1.0 12.0 0.00 0.00 0.00 29 1007.1
20260503001016 72 195 0.0 12.0 0.00 0.00 0.00 31 1007.2
20260503000517 72 162 1.0 17.0 0.00 0.00 0.00 31 1007.2
20260503000016 73 191 8.0 17.0 0.00 0.00 0.00 30 1007.3
20260502235516 73 178 9.0 15.0 0.00 0.00 0.00 28 1007.3
20260502235016 73 191 2.0 9.0 0.00 0.00 0.00 27 1007.2
20260502234526 73 191 1.0 10.0 0.00 0.00 0.00 28 1007.2
20260502234019 73 188 0.0 10.0 0.00 0.00 0.00 27 1007.2
20260502233519 73 168 5.0 17.0 0.00 0.00 0.00 28 1007.2
20260502233118 72 189 5.0 22.0 0.00 0.00 0.00 28 1007.3
20260502232519 73 165 14.0 22.0 0.00 0.00 0.00 27 1007.4